Latest Coastal Weather Observations for Coconut Island

IDQ60701

Issued at 8:31 am EST Thursday 2 April 2015 (issued every 10 minutes, with the page automatically refreshed every 10 minutes)

About coastal observations | Map of coastal stations | Coastal observations for QLD | Marine services | Other Formats
Station Details ID: 027054 Name: COCONUT ISLAND Lat: -10.05 Lon: 143.07 Height: 3.5 m
Data from the previous 72 hours. | See also: Recent months at Coconut Island
Date/Time
EST
Temp

°C
Wind Pressure Rain
since 9am
mm
Weather Cloud Vis
km
Sea
Height
m
Swell
Dir
 
Speed
knots
Gust
knots
hPa Trend Height
m
Period
s
Dir
02/08:30am 29.0 SE 4 8 1009.9 - 0.0 - - - - - - -
02/08:00am 28.2 SE 5 9 1009.8 - 0.0 - - - - - - -
02/07:30am 27.7 SE 4 10 1009.7 - 0.0 - - - - - - -
02/07:00am 27.2 SE 4 9 1009.2 - 0.0 - - - - - - -
02/06:30am 27.0 SE 3 7 1008.9 - 0.0 - - - - - - -
02/06:00am 27.1 SE 4 9 1008.6 - 0.0 - - - - - - -
02/05:30am 27.1 SE 3 7 1008.3 - 0.0 - - - - - - -
02/05:00am 27.1 SE 4 9 1007.8 - 0.0 - - - - - - -
02/04:30am 27.1 SE 3 7 1007.3 - 0.0 - - - - - - -
02/04:00am 27.3 SSE 2 5 1007.3 - 0.0 - - - - - - -
02/03:30am 27.4 SSE 2 3 1007.5 - 0.0 - - - - - - -
02/03:00am 27.3 SE 2 4 1007.7 - 0.0 - - - - - - -
02/02:30am 27.5 SSE 2 4 1007.8 - 0.0 - - - - - - -
02/02:00am 27.7 SSE 2 5 1008.0 - 0.0 - - - - - - -
02/01:30am 27.8 SSE 2 3 1008.4 - 0.0 - - - - - - -
02/01:00am 27.8 SE 3 5 1008.7 - 0.0 - - - - - - -
02/12:30am 27.9 SE 3 7 1009.2 - 0.0 - - - - - - -
02/12:00am 28.0 SSE 2 5 1009.3 - 0.0 - - - - - - -
 
Date/Time
EST
Temp

°C
Wind Pressure Rain
since 9am
mm
Weather Cloud Vis
km
Sea
Height
m
Swell
Dir
 
Speed
knots
Gust
knots
hPa Trend Height
m
Period
s
Dir
01/11:30pm 27.9 SE 3 6 1009.5 - 0.0 - - - - - - -
01/11:00pm 28.0 SSE 2 5 1009.7 - 0.0 - - - - - - -
01/10:30pm 27.9 SSE 3 4 1009.7 - 0.0 - - - - - - -
01/10:00pm 28.0 SSE 3 7 1009.6 - 0.0 - - - - - - -
01/09:30pm 28.2 SSE 3 8 1009.4 - 0.0 - - - - - - -
01/09:00pm 28.3 SSE 3 5 1009.2 - 0.0 - - - - - - -
01/08:30pm 28.3 SSE 3 3 1008.9 - 0.0 - - - - - - -
01/08:00pm 28.4 SSE 2 4 1008.6 - 0.0 - - - - - - -
01/07:30pm 28.5 SSE 3 4 1008.2 - 0.0 - - - - - - -
01/07:00pm 28.6 SSE 3 4 1007.7 - 0.0 - - - - - - -
01/06:30pm 28.7 SSE 3 5 1007.3 - 0.0 - - - - - - -
01/06:00pm 29.1 SSE 3 5 1006.9 - 0.0 - - - - - - -
01/05:30pm 29.6 SSE 3 5 1006.7 - 0.0 - - - - - - -
01/05:00pm 30.6 SSE 3 6 1006.5 - 0.0 - - - - - - -
01/04:30pm 31.9 SE 3 5 1006.6 - 0.0 - - - - - - -
01/04:00pm 33.0 SE 3 5 1006.8 - 0.0 - - - - - - -
01/03:30pm 33.0 SE 2 5 1007.2 - 0.0 - - - - - - -
01/03:00pm 32.7 SE 4 10 1007.6 - 0.0 - - - - - - -
01/02:30pm 32.9 SE 5 11 1007.9 - 0.0 - - - - - - -
01/02:00pm 33.9 SE 4 11 1008.3 - 0.0 - - - - - - -
01/01:30pm 34.1 SE 4 10 1008.6 - 0.0 - - - - - - -
01/01:00pm 33.8 SE 3 7 1009.2 - 0.0 - - - - - - -
01/12:30pm 33.3 SE 4 9 1009.7 - 0.0 - - - - - - -
01/12:00pm 33.8 SE 4 7 1010.0 - 0.0 - - - - - - -
01/11:30am 33.0 SE 4 9 1010.5 - 0.0 - - - - - - -
01/11:00am 32.1 SE 4 11 1010.8 - 0.0 - - - - - - -
01/10:30am 31.7 ESE 5 10 1010.8 - 0.0 - - - - - - -
01/10:00am 31.6 SE 6 11 1010.8 - 0.0 - - - - - - -
01/09:30am 30.9 SE 5 11 1010.8 - 0.0 - - - - - - -
01/09:00am 30.2 SE 4 8 1010.7 - 0.0 - - - - - - -
01/08:30am 29.5 SE 4 10 1010.7 - 0.0 - - - - - - -
01/08:00am 28.5 SE 4 8 1010.3 - 0.0 - - - - - - -
01/07:30am 27.9 SE 4 10 1010.0 - 0.0 - - - - - - -
01/07:00am 27.2 SE 5 10 1009.4 - 0.0 - - - - - - -
01/06:30am 27.0 SE 4 9 1009.1 - 0.0 - - - - - - -
01/06:00am 26.9 SE 4 8 1008.9 - 0.0 - - - - - - -
01/05:30am 27.0 SE 4 11 1008.8 - 0.0 - - - - - - -
01/05:00am 26.9 SE 4 10 1008.6 - 0.0 - - - - - - -
01/04:30am 27.0 SE 4 10 1008.3 - 0.0 - - - - - - -
01/04:00am 27.1 SE 4 10 1008.2 - 0.0 - - - - - - -
01/03:30am 27.0 SE 4 9 1008.2 - 0.0 - - - - - - -
01/03:00am 27.2 SSE 3 5 1008.5 - 0.0 - - - - - - -
01/02:30am 27.1 SSE 4 7 1008.7 - 0.0 - - - - - - -
01/02:00am 27.4 SSE 3 7 1009.1 - 0.0 - - - - - - -
01/01:30am 27.4 SSE 4 6 1009.4 - 0.0 - - - - - - -
01/01:00am 27.4 SSE 4 7 1009.6 - 0.0 - - - - - - -
01/12:30am 27.5 SSE 3 7 1009.9 - 0.0 - - - - - - -
01/12:00am 27.6 SSE 3 6 1010.3 - 0.0 - - - - - - -
 
Date/Time
EST
Temp

°C
Wind Pressure Rain
since 9am
mm
Weather Cloud Vis
km
Sea
Height
m
Swell
Dir
 
Speed
knots
Gust
knots
hPa Trend Height
m
Period
s
Dir
31/11:30pm 27.6 SSE 4 6 1010.6 - 0.0 - - - - - - -
31/11:00pm 27.6 SSE 4 7 1010.7 - 0.0 - - - - - - -
31/10:30pm 27.9 SSE 3 7 1010.9 - 0.0 - - - - - - -
31/10:00pm 27.8 SSE 4 8 1010.9 - 0.0 - - - - - - -
31/09:30pm 27.9 SSE 4 6 1010.8 - 0.0 - - - - - - -
31/09:00pm 28.0 SSE 4 7 1010.5 - 0.0 - - - - - - -
31/08:30pm 28.1 SSE 4 6 1010.2 - 0.0 - - - - - - -
31/08:00pm 28.1 SSE 4 7 1009.7 - 0.0 - - - - - - -
31/07:30pm 28.1 SSE 4 6 1009.6 - 0.0 - - - - - - -
31/07:00pm 28.1 SSE 4 6 1009.1 - 0.0 - - - - - - -
31/06:30pm 28.3 SSE 5 7 1008.7 - 0.0 - - - - - - -
31/06:00pm 29.0 SSE 4 6 1008.3 - 0.0 - - - - - - -
31/05:30pm 29.2 SSE 4 6 1008.0 - 0.0 - - - - - - -
31/05:00pm 29.4 SSE 5 6 1007.9 - 0.0 - - - - - - -
31/04:30pm 29.7 SSE 4 7 1007.9 - 0.0 - - - - - - -
31/04:00pm 29.8 SSE 4 6 1007.9 - 0.0 - - - - - - -
31/03:30pm 30.4 SSE 5 7 1007.9 - 0.0 - - - - - - -
31/03:00pm 30.9 SSE 4 9 1008.1 - 0.0 - - - - - - -
31/02:30pm 30.1 SSE 4 9 1008.3 - 0.0 - - - - - - -
31/02:00pm 32.5 SSE 3 7 1008.6 - 0.0 - - - - - - -
31/01:30pm 33.6 SSE 3 8 1009.1 - 0.0 - - - - - - -
31/01:00pm 32.8 SE 3 6 1009.5 - 0.0 - - - - - - -
31/12:30pm 33.4 SE 3 7 1009.8 - 0.0 - - - - - - -
31/12:00pm 32.5 SE 4 8 1010.4 - 0.0 - - - - - - -
31/11:30am 33.3 SSE 3 6 1010.9 - 0.0 - - - - - - -
31/11:00am 32.1 SSE 4 8 1011.4 - 0.0 - - - - - - -
31/10:30am 32.2 SSE 3 5 1011.6 - 0.0 - - - - - - -
31/10:00am 31.4 SSE 3 5 1011.5 - 0.0 - - - - - - -
31/09:30am 31.2 SE 3 6 1011.8 - 0.0 - - - - - - -
31/09:00am 30.3 SSE 3 5 1011.8 - 0.0 - - - - - - -
31/08:30am 29.9 SE 3 6 1011.7 - 0.0 - - - - - - -
31/08:00am 28.6 SSE 3 5 1011.4 - 0.0 - - - - - - -
31/07:30am 27.7 SSE 2 3 1011.0 - 0.0 - - - - - - -
31/07:00am 27.4 SSE 2 6 1010.7 - 0.0 - - - - - - -
31/06:30am 26.9 SE 3 7 1010.4 - 0.0 - - - - - - -
31/06:00am 26.8 SSE 3 6 1009.9 - 0.0 - - - - - - -
31/05:30am 26.7 SE 3 6 1009.7 - 0.0 - - - - - - -
31/05:00am 26.7 SE 3 7 1009.5 - 0.0 - - - - - - -
31/04:30am 26.8 SE 3 6 1009.5 - 0.0 - - - - - - -
31/04:00am 26.8 SE 3 8 1009.6 - 0.0 - - - - - - -
31/03:30am 26.9 SE 4 8 1009.8 - 0.0 - - - - - - -
31/03:00am 27.0 SE 3 7 1009.8 - 0.0 - - - - - - -
31/02:30am 27.1 SSE 3 7 1010.2 - 0.0 - - - - - - -
31/02:00am 27.4 SE 3 6 1010.7 - 0.0 - - - - - - -
31/01:30am 27.4 SSE 3 6 1010.8 - 0.0 - - - - - - -
31/01:00am 27.6 SE 4 7 1011.1 - 0.0 - - - - - - -
31/12:30am 27.5 SE 4 10 1011.4 - 0.0 - - - - - - -
31/12:00am 27.5 SE 4 8 1011.7 - 0.0 - - - - - - -
 
Date/Time
EST
Temp

°C
Wind Pressure Rain
since 9am
mm
Weather Cloud Vis
km
Sea
Height
m
Swell
Dir
 
Speed
knots
Gust
knots
hPa Trend Height
m
Period
s
Dir
30/11:30pm 27.6 SE 4 7 1011.9 - 0.0 - - - - - - -
30/11:00pm 27.6 SE 4 9 1012.1 - 0.0 - - - - - - -
30/10:30pm 27.6 SE 4 9 1012.2 - 0.0 - - - - - - -
30/10:00pm 27.7 SE 4 11 1012.3 - 0.0 - - - - - - -
30/09:30pm 27.7 SSE 4 9 1012.3 - 0.0 - - - - - - -
30/09:00pm 27.9 SSE 4 7 1012.3 - 0.0 - - - - - - -
30/08:30pm 28.1 SSE 3 6 1011.9 - 0.0 - - - - - - -
30/08:00pm 28.1 SE 4 9 1011.6 - 0.0 - - - - - - -
30/07:30pm 28.2 SSE 3 5 1011.0 - 0.0 - - - - - - -
30/07:00pm 28.3 SSE 3 5 1010.9 - 0.0 - - - - - - -
30/06:30pm 28.5 SE 3 6 1010.5 - 0.0 - - - - - - -
30/06:00pm 29.5 SSE 3 6 1010.2 - 0.0 - - - - - - -
30/05:30pm 30.0 SSE 3 5 1010.0 - 0.0 - - - - - - -
30/05:00pm 31.0 SE 3 6 1009.7 - 0.0 - - - - - - -
30/04:30pm 30.9 SE 4 9 1009.8 - 0.0 - - - - - - -
30/04:00pm 31.4 SE 3 7 1009.7 - 0.0 - - - - - - -
30/03:30pm 31.8 SE 4 9 1009.7 - 0.0 - - - - - - -
30/03:00pm 32.0 ESE 5 9 1010.0 - 0.0 - - - - - - -
30/02:30pm 32.4 ESE 5 10 1010.0 - 0.0 - - - - - - -
30/02:00pm 32.1 ESE 5 10 1010.3 - 0.0 - - - - - - -
30/01:30pm 32.0 ESE 6 11 1010.6 - 0.0 - - - - - - -
30/01:00pm 32.5 ESE 5 11 1010.9 - 0.0 - - - - - - -
30/12:30pm 32.0 ESE 6 10 1011.3 - 0.0 - - - - - - -
30/12:00pm 32.3 ESE 6 10 1011.9 - 0.0 - - - - - - -
30/11:30am 32.3 ESE 6 10 1012.5 - 0.0 - - - - - - -
30/11:00am 31.6 ESE 6 10 1012.7 - 0.0 - - - - - - -
30/10:30am 31.3 ESE 6 11 1013.0 - 0.0 - - - - - - -
30/10:00am 31.3 ESE 6 10 1013.2 - 0.0 - - - - - - -
30/09:30am 30.8 ESE 6 11 1013.3 - 0.0 - - - - - - -
30/09:00am 29.8 ESE 5 10 1013.2 - 0.0 - - - - - - -

Other Formats:

Comma delimited format used in spreadsheet applications
http://www.bom.gov.au/fwo/IDQ60701/IDQ60701.94182.axf

JavaScript Object Notation format (JSON) in row-major order
http://www.bom.gov.au/fwo/IDQ60701/IDQ60701.94182.json